Other Public Products
Issued by NWS Grand Forks, ND

Home | Current Version | Previous Version | Text Only | Print | Product List | Glossary On
Versions: 1 2 3 4 5 6 7 8 9 10 11 12 13 14 15 16 17 18 19 20 21 22 23 24 25 26 27 28 29 30 31 32 33 34 35 36 37 38 39 40 41 42 43 44 45 46 47 48 49 50
000
FPUS83 KFGF 290731
OPUFGF
PRAIRIE TO PINES WEATHER ROUNDUP
NATIONAL WEATHER SERVICE EASTERN NORTH DAKOTA/GRAND FORKS ND
200 AM CDT SUN MAY 29 2016

 **SATELLITE DATA USED TO AUGMENT SKY COVER AT AUTOMATED STATIONS**
 *****  WEATHER ACROSS EASTERN NORTH DAKOTA  *****

CITY           SKY/WX    TMP DP  RH WIND       PRES   REMARKS
GRAND FORKS    CLOUDY    60  58  92 NW3       29.86S
GRAND FORKS AF MOCLDY    59  59 100 N3        29.87S
GRAND CITY NWS   N/A     59 N/A N/A NW3         N/A
BUXTON           N/A     60  60  98 NW2         N/A
DEVILS LAKE    MOCLDY    58  57  97 N6        29.92S
FARGO          CLOUDY    61  58  90 W6        29.86S
WAHPETON ARPT  FAIR      55  54  94 NW6       29.88R
$$

 *****  WEATHER ACROSS CENTRAL AND WESTERN NORTH DAKOTA  *****

CITY           SKY/WX    TMP DP  RH WIND       PRES   REMARKS
JAMESTOWN      FAIR      56  56 100 CALM      29.90R
BISMARCK       CLEAR     52  52 100 W6        29.96R
MINOT          CLOUDY    58  55  90 SW3       29.94R
MINOT AFB      MOCLDY    54  53  98 SW6       29.93R
GARRISON         N/A     52  50  93 NW7       29.95R
WILLISTON      CLEAR     48  47  96 SW5       29.97S
DICKINSON      CLEAR     47  46  97 W7        29.98R
HETTINGER      FOG       43  41  93 CALM      30.03R VSB 1/4
$$

 *****  OTHER OBSERVATIONS NORTHEAST NORTH DAKOTA  *****

CITY           SKY/WX    TMP DP  RH WIND       PRES   REMARKS
WALHALLA       FAIR      57  57 100 NW9       29.91R
LANGDON        RAIN      55  55 100 N9        29.92S
CAVALIER       CLOUDY    59  57  94 N7        29.89S
GRAFTON        CLOUDY    61  61 100 NW8       29.89S
CANDO          CLOUDY    55  55 100 NE7       29.95R
FORT TOTTEN      N/A     58  58 100 CALM      29.95S
ROLLA          FOG       54  54 100 N8        29.94F VSB 3/4
RUGBY          PTSUNNY   55  55 100 E5        29.93S
 ***** THE ABOVE OBSERVATIONS ARE NON NWS ARE NOT QUALITY
        CONTROLLED AND MAY MIS-REPORT RAIN FOR SNOW...
$$

 *****  OTHER OBSERVATIONS SOUTHEAST NORTH DAKOTA *****

CITY           SKY/WX    TMP DP  RH WIND       PRES   REMARKS
COOPERSTOWN    NOT AVBL
VALLEY CITY    CLOUDY    54  54 100 NW6       29.92S
OAKES            N/A    N/A N/A N/A MISG        N/A
GWINNER        FAIR      57  57 100 NW3       29.90S
SHEYENNE NWR     N/A     56  56 100 W3        29.95S
BUFFALO          N/A     56  53  91 W5          N/A
WYNDMERE         N/A     61  57  88 W5          N/A
 ***** THE ABOVE OBSERVATIONS ARE NON NWS ARE NOT QUALITY
       CONTROLLED AND MAY MIS-REPORT RAIN FOR SNOW...
$$

  *****  WEATHER ACROSS NORTHERN MINNESOTA  *****

CITY           SKY/WX    TMP DP  RH WIND       PRES   REMARKS
FLAG ISLAND    CLOUDY    55  54  94 NE9       29.83S
WARROAD        DRIZZLE   55  52  88 NW5       29.85S
ROSEAU         CLOUDY    55  52  88 N7        29.85F
HALLOCK        CLOUDY    59  55  88 CALM      29.87S
THF RVR FALLS  CLOUDY    55  54  94 N6        29.87S
HALSTAD        NOT AVBL
FOSSTON        CLOUDY    55  54  94 N6        29.86R
BAUDETTE       LGT RAIN  55  53  93 NW5       29.83R
WASKISH        RAIN      55  55 100 N3        29.82F
CROOKSTON      FAIR      57  57 100 N3        29.87S
$$
  *****  WEATHER ACROSS CENTRAL AND WEST MINNESOTA  *****

CITY           SKY/WX    TMP DP  RH WIND       PRES   REMARKS
BEMIDJI        DRIZZLE   56  56  99 NW5       29.83S
PARK RAPIDS    CLOUDY    59  56  89 NW6       29.83S
WADENA         LGT RAIN  57  57 100 W3        29.84S
DETROIT LAKES  CLOUDY    59  55  88 NW8       29.87R
MOORHEAD       MOCLDY    61  59  94 NW3       29.87S
FERGUS FALLS   MOCLDY    59  59 100 NW8       29.84S
ELBOW LAKE     PTSUNNY   58  58  99 NW6       29.88R FOG
MORRIS MN      FAIR      57  57 100 W7        29.88R FOG
STAPLES        CLOUDY    57  57 100 W3        29.83F
WHEATON        FAIR      61  61 100 W5        29.90S
$$
  *****  WEATHER ELSEWHERE ACROSS MINNESOTA  *****

CITY           SKY/WX    TMP DP  RH WIND       PRES   REMARKS
DULUTH         FOG       56  55  97 CALM      29.80S VSB 1
INTRNTL FALLS  CLOUDY    57  56  96 N5        29.80S FOG
ELY            CLOUDY    59  57  94 CALM      29.80S FOG
CLOQUET        RAIN      55  54  94 CALM      29.81S
BRAINERD       CLOUDY    59  58  96 W6        29.83S FOG
HIBBING        RAIN      57  57 100 CALM      29.80S FOG
ALEXANDRIA     CLOUDY    59  57  93 W9        29.87R
SAINT CLOUD    CLOUDY    60  58  92 W3        29.83S
MINNEAPOLIS    CLOUDY    63  60  90 W5        29.84S
$$

  *****  WEATHER ACROSS SOUTH DAKOTA  *****

CITY           SKY/WX    TMP DP  RH WIND       PRES   REMARKS
SIOUX FALLS    FAIR      57  55  93 SW3       29.95R
BROOKINGS      FAIR      55  54  96 W5        29.93S
WATERTOWN      FAIR      58  55  90 W7        29.92R
HURON          PTCLDY    60  56  86 SW7       29.93F
SISSETON         N/A     59  56  89 N5        29.88S
ABERDEEN       CLOUDY    59  56  89 W7        29.92R
MITCHELL       CLOUDY    61  58  90 SW6       29.95S
PIERRE         PTCLDY    53  52  96 N6        29.97R
MOBRIDGE       CLEAR     55  51  86 NW7       29.94S
RAPID CITY     CLEAR     51  45  79 NW8       30.04S
$$

  *****  SOME WEATHER IN NEARBY STATES *****

CITY           SKY/WX    TMP DP  RH WIND       PRES   REMARKS
GLASGOW MT     PTCLDY    51  39  63 SW5       29.98R
GREAT FALLS MT CLEAR     42  32  67 S9        30.03S
CHEYENNE WY    CLEAR     48  39  71 SW9       30.16S
SCOTTSBLUFF NE CLEAR     49  44  83 E6        30.09S
OMAHA NE       FAIR      59  54  83 NW5       29.99S
DES MOINES IA  FAIR      63  56  78 W13       29.93R
DAVENPORT IA   FAIR      66  59  78 S9        29.94F
CHICAGO IL     MOCLDY    66  60  81 S9        29.94F
EAU CLAIRE WI  CLOUDY    60  59  96 SW5       29.82S
LA CROSSE WI   MOCLDY    64  61  90 S6        29.83S
$$

  *****  SOME NATIONAL WEATHER *****

CITY           SKY/WX    TMP DP  RH WIND       PRES   REMARKS
LA GUARDIA NY  FAIR      77  58  51 SW8       30.12S
RALEIGH NC     CLOUDY    73  66  78 E3        30.10F
ATLANTA GA     MOCLDY    72  60  66 CALM      30.10F
NEW ORLEANS LA FAIR      72  69  90 CALM      30.04F
OKLAHOMA CITY  FAIR      71  69  93 SE8       30.03F
ALBUQUERQUE NM MOCLDY    66  23  19 NE3       30.09F
SALT LAKE CITY MOCLDY    63  39  41 SE7       30.06S
LOS ANGELES CA CLOUDY    60  53  77 NW6       29.97S
BOISE ID       CLEAR     56  33  42 SE10      30.02S
SEATTLE WA     CLOUDY    56  53  90 S8        30.05S
$$

*** WEATHER ACROSS MANITOBA...SASKATCHEWAN AND ONTARIO ***
                ***ONTARIO***

CITY           SKY/WX    TMP DP  RH WIND       PRES   REMARKS
GERALDTON      LGT RAIN  54  54 100 NE8       29.82F FOG
THUNDER BAY    CLOUDY    57  57 100 VRB2      29.79F FOG
SIOUX LOOKOUT  DRIZZLE   52  50  93 VRB3      29.85F FOG
TORONTO        MOCLDY    72  66  83 W7        30.04F
BIG TROUT LK   CLOUDY    50  45  81 E9        30.07F
PICKLE LAKE    NOT AVBL
DRYDEN         CLOUDY    52  50  93 NE10      29.84S FOG
KENORA         LGT RAIN  52  52 100 N7        29.85S FOG
$$
                *** MANITOBA***

CITY           SKY/WX    TMP DP  RH WIND       PRES   REMARKS
BRANDON        CLOUDY    50  50 100 E6        29.94F
DAUPHIN        CLOUDY    50  50 100 N3        29.95F FOG
ISLAND LAKE    CLOUDY    48  46  93 E6        30.02F
PILOT MOUND      N/A     54  54 100 N6          N/A
THE PAS        CLOUDY    48  43  81 E5        30.00F
THOMPSON       LGT RAIN  46  43  87 E5        30.07F
WINNIPEG       LGT RAIN  55  54  94 NE8       29.90F
LYNN LAKE      CLOUDY    45  39  81 S5        30.05S
CHURCHILL      CLOUDY    27  27 100 SE12      30.26R FOG     WCI  16
$$
                ***SASKATCHEWAN***

CITY           SKY/WX    TMP DP  RH WIND       PRES   REMARKS
ESTEVAN        NOT AVBL
KINDERSLEY     PTCLDY    46  43  87 S6        29.88S
LLOYDMINSTER   FOG       43  43 100 W8        29.87S VSB 1/2
PRINCE ALBERT  LGT RAIN  50  45  81 E13G21    29.89F
REGINA         PTCLDY    48  45  87 SW8       29.92R
YORKTON        LGT RAIN  50  48  93 SE10      29.93S FOG
N. BATTLEFORD  CLEAR     46  46 100 SW6       29.88S   C1F1C2F2C3F3C4F4C5F5C6F6C7F7C8F8C9F9CaFaCbFbCcFcCdFdCe!


USA.gov is the U.S. government's official web portal to all federal, state and local government web resources and services.